Location: Home
(42.5358°N, 72.7383°W)
Time: 11:48:20
(UTC-05:00)

A-11 Canister half - Pass Details

Date: 05 December 2021
Orbit: 1516 x 1684 km, 47.2° (Epoch: 26 January)

Event Time Altitude Azimuth Distance (km) Brightness Sun altitude
Rises 14:02:33 0° 294° (WNW) 4,916 11.8 17.3°
Reaches altitude 10° 14:06:14 10° 284° (WNW) 3,938 11.5 17.0°
Maximum altitude 14:14:24 29° 230° (SW) 2,727 12.1 16.1°
Drops below altitude 10° 14:22:35 10° 175° (S) 3,925 12.0 15.2°
Sets 14:26:17 0° 165° (SSE) 4,897 12.2 14.7°
